Weather in Yurkino

Russia / Mari El Republic     56°30′51″N   46°12′55″E
temp.,
°C
wind,
m/s
gust,
m/s
humid.,
%
clouds,
%
prec.,
mm/h
press.,
hPa
HPBL,
m
4 march, thu
thu400:00−3wsw41195100 0.5 1002676
03:00−3wsw41095100 0.8 1000504
06:00−2sw4119492 0.1 997571
09:00−1sw6129595 0.3 993885
12:00+1wsw713100100 1.2 9901146
15:000wnw7147986 2.0 9911583
18:00−3wnw5138432 0.1 994766
21:00−7wnw3109035 0.1 997307
5 march, fri
fri500:00−11wnw33950 0.0 99878
03:00−14nw23960 0.0 100124
06:00−16wnw22970 0.0 100220
09:00−11w23950 0.0 1004165
12:00−6wsw359258 0.0 1004496
15:00−4w468879 0.1 1006855
18:00−8w369294 0.1 1006136
21:00−11wsw239567 0.1 100936
6 march, sat
sat600:00−11w259699 0.2 1010139
03:00−13nnw239698 0.4 101292
06:00−17nw239694 0.0 101466
09:00−16wnw249354 0.0 1015248
12:00−11wnw248955 0.0 1015587
15:00−10wnw358678 0.1 1014884
18:00−14wnw1294100 0.1 101420
21:00−16w229696 0.1 101420
7 march, sun
sun700:00−19w129610 0.0 101320
03:00−18sw129950 0.1 101220
06:00−20ssw2210081 0.0 101020
09:00−14s369471 0.0 1008252
12:00−9s5108487 0.0 1005540
15:00−7s6129393 0.3 1002862
18:00−6s61393100 1.1 998988
21:00−6s51294100 2.1 994926
8 march, mon
mon800:00−5wsw61194100 1.1 992754
03:00−10wsw51384100 1.3 994747
06:00−13wsw4128931 0.0 995384
09:00−10sw489358 0.1 996425
12:00−7ssw3690100 0.1 997518
15:00−5s2586100 0.2 996692
18:00−8se1190100 0.0 99621
21:00−10nw2396100 0.1 99844